Other Public Products
Issued by NWS Grand Forks, ND

Home | Current Version | Previous Version | Graphics & Text | Print | Product List | Glossary On
Versions: 1 2 3 4 5 6 7 8 9 10 11 12 13 14 15 16 17 18 19 20 21 22 23 24 25 26 27 28 29 30 31 32 33 34 35 36 37 38 39 40 41 42 43 44 45 46 47 48 49 50
000
FPUS83 KFGF 210431
OPUFGF
PRAIRIE TO PINES WEATHER ROUNDUP
NATIONAL WEATHER SERVICE EASTERN NORTH DAKOTA/GRAND FORKS ND
1100 PM CDT WED AUG 20 2014

 **SATELLITE DATA USED TO AUGMENT SKY COVER AT AUTOMATED STATIONS**
 *****  WEATHER ACROSS EASTERN NORTH DAKOTA  *****

CITY           SKY/WX    TMP DP  RH WIND       PRES   REMARKS
GRAND FORKS    MOCLDY    73  67  81 SE9       29.78R
GRAND FORKS AF MOCLDY    71  70  99 SE7       29.79R
GRAND CITY NWS   N/A     68 N/A N/A SE5         N/A
BUXTON           N/A     71  70  97 E9          N/A
DEVILS LAKE    CLOUDY    72  64  78 SE10      29.77S
FARGO          MOCLDY    74  67  78 SE13      29.77F
WAHPETON ARPT  CLOUDY    72  63  73 SE12G17   29.77S
$$

 *****  WEATHER ACROSS CENTRAL AND WESTERN NORTH DAKOTA  *****

CITY           SKY/WX    TMP DP  RH WIND       PRES   REMARKS
JAMESTOWN      LGT RAIN  72  68  87 SE6       29.79R
BISMARCK       MOCLDY    71  69  93 E10       29.71R
MINOT          LGT RAIN  66  63  90 CALM      29.77R
MINOT AFB      LGT RAIN  65  65  99 SE9       29.76S
GARRISON         N/A     66  64  93 NE6       29.75F
WILLISTON      PTCLDY    64  61  90 NE3       29.78R
DICKINSON      CLEAR     60  57  89 W6        29.78S
HETTINGER      CLEAR     60  58  92 W6        29.79S
$$

 *****  OTHER OBSERVATIONS NORTHEAST NORTH DAKOTA  *****

CITY           SKY/WX    TMP DP  RH WIND       PRES   REMARKS
WALHALLA         N/A     72  72 100 SE5       29.78S
LANGDON        FAIR      72  66  83 SE8       29.79F
CAVALIER       FAIR      70  66  88 E6        29.78S
GRAFTON        FAIR      70  68  94 SE8       29.78S
CANDO          MOCLDY    70  68  94 SE9       29.77F
FORT TOTTEN      N/A     71  66  83 S6        29.95
ROLLA          CLOUDY    68  68 100 S9        29.79S
RUGBY          FAIR      70  68  94 SE7       29.75R
 ***** THE ABOVE OBSERVATIONS ARE NON NWS ARE NOT QUALITY
        CONTROLLED AND MAY MIS-REPORT RAIN FOR SNOW...
$$

 *****  OTHER OBSERVATIONS SOUTHEAST NORTH DAKOTA *****

CITY           SKY/WX    TMP DP  RH WIND       PRES   REMARKS
COOPERSTOWN    NOT AVBL
VALLEY CITY    MOCLDY    73  73 100 SE10      29.79R
OAKES          NOT AVBL
GWINNER        PTCLDY    73  72  94 E10       29.77R
SHEYENNE NWR     N/A     73  68  83 E8        29.95
BUFFALO          N/A     72  65  79 E10         N/A
WYNDMERE       NOT AVBL
 ***** THE ABOVE OBSERVATIONS ARE NON NWS ARE NOT QUALITY
       CONTROLLED AND MAY MIS-REPORT RAIN FOR SNOW...
$$

  *****  WEATHER ACROSS NORTHERN MINNESOTA  *****

CITY           SKY/WX    TMP DP  RH WIND       PRES   REMARKS
FLAG ISLAND    CLEAR     72  63  73 SE9       29.85S
WARROAD        CLEAR     66  63  88 SE6       29.87R
ROSEAU         PTCLDY    68  63  83 SE6       29.86R
HALLOCK        PTCLDY    72  64  78 SE9       29.80R
THF RVR FALLS  PTCLDY    66  63  88 E8        29.83F
HALSTAD          N/A     70  66  88 SE9         N/A
FOSSTON        CLEAR     66  61  82 SE7       29.85S
BAUDETTE       CLEAR     66  61  84 SE5       29.87R
WASKISH        MOCLDY    63  61  94 CALM      29.89R
CROOKSTON      PTCLDY    70  64  83 SE7       29.81S
$$
  *****  WEATHER ACROSS CENTRAL AND WEST MINNESOTA  *****

CITY           SKY/WX    TMP DP  RH WIND       PRES   REMARKS
BEMIDJI        PTCLDY    66  63  90 SE8       29.88R
PARK RAPIDS    PTCLDY    68  63  84 SE9       29.87S
WADENA         PTCLDY    66  63  88 E9        29.85S
DETROIT LAKES  PTCLDY    70  64  83 SE12G17   29.85F
MOORHEAD       PTCLDY    73  72  94 SE9       29.79S
FERGUS FALLS   MOCLDY    73  63  68 SE12      29.80R
ELBOW LAKE     FAIR      73  66  79 E13       29.81S
MORRIS MN      CLOUDY    73  68  83 E10       29.79S
STAPLES        PTCLDY    66  63  88 SE6       29.86F
WHEATON        CLOUDY    72  66  83 E10       29.78S
$$
  *****  WEATHER ELSEWHERE ACROSS MINNESOTA  *****

CITY           SKY/WX    TMP DP  RH WIND       PRES   REMARKS
DULUTH         PTCLDY    60  57  89 E9        29.94S
INTRNTL FALLS  CLEAR     61  58  90 SE5       29.88F
ELY            MOCLDY    61  57  88 CALM      29.95S
CLOQUET        PTCLDY    61  57  88 E3        29.94S
BRAINERD       MOCLDY    67  62  84 VRB6      29.89F
HIBBING        CLEAR     59  56  89 SE7       29.93S
ALEXANDRIA     MOCLDY    71  65  81 E14       29.85F
SAINT CLOUD    MOCLDY    71  65  81 E8        29.86F
MINNEAPOLIS    MOCLDY    73  65  75 E13       29.87S
$$

  *****  WEATHER ACROSS SOUTH DAKOTA  *****

CITY           SKY/WX    TMP DP  RH WIND       PRES   REMARKS
SIOUX FALLS    CLOUDY    74  71  91 SE9       29.75F
BROOKINGS      NOT AVBL
WATERTOWN      MOCLDY    73  69  87 SE7       29.76S
HURON          PTCLDY    75  70  84 SE10      29.69S
SISSETON         N/A     75  70  84 SE9       29.75F
ABERDEEN       PTCLDY    72  69  90 E8        29.72R
MITCHELL       CLEAR     75  73  93 SE9       29.69F
PIERRE         CLEAR     75  72  90 SE8       29.66R
MOBRIDGE         N/A     68  67  96 SE15      29.70R THUNDER
RAPID CITY     CLEAR     68  57  68 N13       29.82R
$$

  *****  SOME WEATHER IN NEARBY STATES *****

CITY           SKY/WX    TMP DP  RH WIND       PRES   REMARKS
GLASGOW MT     CLEAR     67  54  63 N7        29.80R
GREAT FALLS MT CLOUDY    57  52  83 NE15      29.95R
CHEYENNE WY    CLOUDY    67  47  48 CALM      30.05R
SCOTTSBLUFF NE MOCLDY    73  58  59 CALM      29.88R
OMAHA NE       PTCLDY    81  72  74 SE16      29.78S
DES MOINES IA  MOCLDY    78  73  84 E5        29.84R
DAVENPORT IA   CLEAR     70  67  90 SE6       29.93R
CHICAGO IL     MOCLDY    75  67  76 SW7       29.95R
EAU CLAIRE WI  PTCLDY    66  64  93 E6        29.91S
LA CROSSE WI   PTCLDY    75  67  76 E9        29.89S
$$

  *****  SOME NATIONAL WEATHER *****

CITY           SKY/WX    TMP DP  RH WIND       PRES   REMARKS
LA GUARDIA NY  CLOUDY    73  60  63 S6        30.02R
RALEIGH NC     MOCLDY    73  69  87 CALM      30.03S
ATLANTA GA     CLOUDY    73  67  81 W20G25    30.15R
NEW ORLEANS LA PTCLDY    79  71  76 CALM      30.09R
OKLAHOMA CITY  CLEAR     83  65  54 S13       29.91R
ALBUQUERQUE NM CLEAR     79  42  26 NW5       30.06R
SALT LAKE CITY CLOUDY    67  55  65 NE13      30.03R
LOS ANGELES CA PTCLDY    69  61  75 W12       29.91R
BOISE ID       LGT RAIN  77  48  36 NE13      29.81R
SEATTLE WA     PTCLDY    65  51  60 SW6       29.99R
$$

*** WEATHER ACROSS MANITOBA...SASKATCHEWAN AND ONTARIO ***
                ***ONTARIO***

CITY           SKY/WX    TMP DP  RH WIND       PRES   REMARKS
GERALDTON      CLOUDY    63  61  94 CALM      29.98S
THUNDER BAY    MOCLDY    61  61 100 VRB2      29.97S
SIOUX LOOKOUT  PTCLDY    64  59  82 SE5       29.91F
TORONTO        MOCLDY    66  64  94 SE5       29.92R
BIG TROUT LK   CLEAR     70  54  56 SE13G18   29.91S
PICKLE LAKE    NOT AVBL
DRYDEN         CLEAR     66  61  82 S7        29.91S
KENORA         PTCLDY    66  57  72 SE7       29.90R
$$
                *** MANITOBA***

CITY           SKY/WX    TMP DP  RH WIND       PRES   REMARKS
BRANDON        TSTM      66  63  88 N8        29.79F
DAUPHIN        LGT RAIN  68  64  88 SW12G17   29.77
ISLAND LAKE    PTCLDY    73  59  60 SE7       29.80R
PILOT MOUND      N/A     68  64  88 SE7         N/A
THE PAS        CLOUDY    66  63  88 NW13      29.71R
THOMPSON       TSTM     N/A N/A N/A S9          N/A
WINNIPEG       MOCLDY    73  66  78 SE9       29.80S
LYNN LAKE      LGT RAIN  54  54 100 MISG      29.78R FOG
CHURCHILL      CLOUDY    48  46  93 NE12      29.77F
GILLAM         CLEAR     72  59  64 SE9       29.75S
$$
                ***SASKATCHEWAN***

CITY           SKY/WX    TMP DP  RH WIND       PRES   REMARKS
ESTEVAN        CLOUDY    64  64 100 CALM      29.79R
KINDERSLEY     CLOUDY    61  55  82 N12       29.92R
LLOYDMINSTER   MOCLDY    55  50  82 NW6       29.94R
PRINCE ALBERT  PTCLDY    55  55 100 W2        29.85R
REGINA         MOCLDY    63  59  88 N8        29.80


USA.gov is the U.S. government's official web portal to all federal, state and local government web resources and services.